Flag for Austria Past Weather in Waidhofen an der Ybbs, Lower Austria, Austria — Yesterday and Last 2 Weeks

Now
57 °F

Cool.


Feels Like: 57 °F
Forecast: 48 / 68 °F
Wind: 1 mph from Southwest

Location: Amstetten

Current Time: Jun 1, 2016 at 3:45:02 AM

Latest Report: Jun 1, 2016 at 3:00 AM


Visibility: N/A

Pressure: 29.90 "Hg

Humidity: 94%

Dew Point: 55 °F

Location of Waidhofen an der YbbsLocation

Past Weather in Waidhofen an der Ybbs — Graph

°F

Waidhofen an der Ybbs Temperature Yesterday

Maximum temperature yesterday: 65 °F (at 12:00 PM)
Minimum temperature yesterday: 57 °F (at 5:00 AM)
Average temperature yesterday: 61 °F

High & Low Weather Summary for the Past Weeks

 TemperatureHumidityPressure
High83 °F (May 22, 4:00 PM)100% (May 21, 3:00 AM)30.20 "Hg (May 21, 3:00 AM)
Low42 °F (May 21, 6:00 AM)24% (May 21, 4:00 PM)29.57 "Hg (May 29, 7:00 PM)
Average59 °F78%29.93 "Hg
* Reported May 17 2:00 AM — Jun 1 2:00 AM, Waidhofen an der Ybbs, Weather by CustomWeather, © 2016

Note: Actual official high and low records may vary slightly from our data, if they occured in-between our weather recording intervals... More about our weather records

Advertising

Waidhofen an der Ybbs Weather History for the Previous 24 Hours

Scroll right to see more
 ConditionsComfort  
Time TempWeatherWind HumidityBarometerVisibility
2:00 AM
Wed, Jun 1
57 °FCool.1 mph89%29.90 "HgN/A
1:00 AM58 °FCool.2 mph86%29.91 "HgN/A
12:00 AM58 °FCool.1 mph87%29.90 "HgN/A
11:00 PM
Tue, May 31
59 °FCool.2 mph84%29.90 "HgN/A
10:00 PM60 °FCool.1 mph80%29.90 "HgN/A
9:00 PM61 °FCool.1 mph77%29.88 "HgN/A
7:00 PM63 °FMild.2 mph73%29.87 "HgN/A
6:00 PM63 °FMild.2 mph71%29.87 "HgN/A
5:00 PM65 °FMild.3 mph66%29.87 "HgN/A
3:00 PM65 °FMild.3 mph68%29.87 "HgN/A
12:00 PM65 °FMild.3 mph73%29.85 "HgN/A
11:00 AM63 °FMild.2 mph77%29.85 "HgN/A
10:00 AM64 °FMild.2 mph78%29.85 "HgN/A
9:00 AM62 °FCool.3 mph82%29.84 "HgN/A
8:00 AM60 °FPartly sunny.3 mph90%29.84 "HgN/A
7:00 AM58 °FCool.2 mph95%29.84 "HgN/A
6:00 AM58 °FCool.1 mph98%29.83 "HgN/A
5:00 AM57 °FCool.2 mph99%29.83 "HgN/A
4:00 AM57 °FFog.1 mph98%29.83 "HgN/A
3:00 AM57 °FFog.2 mph98%29.83 "HgN/A
Weather by CustomWeather, © 2016

See weather overviewHow to use our weather pages